#timestamp,LO_Frequency,Hit,StdDev 
1594191615.1,286046998.6,N
1594191616.0,286046998.6,N
1594191635.8,286046998.2,N
1594191655.7,286046998.3,N
1594191675.5,286046999.1,N
1594191695.3,286046996.6,N
1594191715.2,286046998.2,N
1594191735.0,286046998.5,N
1594191735.9,286046998.5,N
1594191755.8,286046998.8,N
1594191775.6,286046998.1,N
1594191795.5,286046999.3,N
1594191815.3,286046996.7,N
1594191835.1,286046997.0,N
1594191855.9,286046999.3,N
1594191875.6,286046997.2,N
1594191895.5,286046998.5,N
1594191915.3,286046999.2,N
1594191935.1,286046996.6,N
1594191955.9,286046997.0,N
1594191975.7,286046998.3,N
1594191995.6,286047001.1,N
1594192015.4,286046998.4,N
1594192035.2,286046999.1,N
1594192055.1,286046996.9,N
1594192056.0,286046996.9,N
1594192075.8,286046997.4,N
1594192095.6,286046997.6,N
1594192115.5,286046996.7,Y
1594192135.3,286046998.4,P
1594192155.2,286046999.3,P
1594192175.9,286046998.2,P
1594192195.7,286047000.4,N
1594192215.6,286046998.8,N
1594192235.4,286047001.0,N
1594192255.3,286047000.3,N
1594192275.1,286047000.9,N
1594192276.0,286047000.9,N
1594192295.8,286047000.6,N
1594192315.7,286047000.9,N
1594192335.5,286047000.1,N
1594192355.3,286047000.6,N
1594192375.2,286047000.8,N
1594192395.0,286046998.6,N
1594192395.9,286046998.6,N
1594192415.8,286046998.6,N
1594192435.6,286046998.6,N
1594192455.4,286046998.9,N
1594192475.3,286047001.2,N
1594192495.1,286046999.9,N
1594192515.9,286047000.6,N
1594192535.7,286047000.3,N
1594192555.5,286047000.4,N
1594192575.4,286047000.3,N
1594192595.2,286046998.6,N
1594192615.0,286046999.9,N
1594192615.9,286046999.9,N
1594192635.8,286047000.3,N
1594192655.6,286047000.7,N
1594192675.5,286047000.5,N
1594192695.3,286046998.1,N
1594192715.1,286046998.1,N
1594192735.9,286047001.1,N
1594192755.7,286047000.3,N
1594192775.5,286047000.5,N
1594192795.4,286047000.8,N
1594192815.2,286047000.7,N
1594192835.1,286047002.8,N
1594192836.0,286047002.8,N
1594192855.8,286047000.2,N
1594192875.6,286047001.5,N
1594192895.5,286047000.0,N
1594192915.3,286047000.4,N
1594192935.2,286047000.5,N
1594192955.9,286047000.8,N
1594192975.7,286047000.8,N
1594192995.6,286047001.1,N
1594193015.4,286046998.4,N
1594193035.2,286047000.3,N
1594193055.1,286047000.6,N
1594193056.0,286047000.6,N
1594193075.8,286047000.4,N
1594193095.7,286047000.4,N
1594193115.5,286047001.2,N
1594193135.3,286047002.8,N
1594193155.2,286047002.8,N
1594193175.0,286047002.7,N
1594193175.9,286047002.7,N
1594193195.8,286047000.9,N
1594193215.6,286046998.3,N
1594193235.4,286047000.9,N
1594193255.3,286046998.1,N
1594193275.1,286046998.3,N
1594193295.8,286047001.2,N
1594193315.7,286047000.1,N
1594193335.5,286047001.2,N
1594193355.4,286047002.8,N
1594193375.2,286047000.4,N
1594193395.0,286047000.3,N
1594193395.9,286047000.3,N
1594193415.8,286047000.9,N
1594193435.6,286047000.3,N
1594193455.5,286047000.6,N
1594193475.3,286047000.3,N
1594193495.1,286047000.0,N
1594193515.9,286047002.8,N
1594193535.7,286047002.8,N
1594193555.5,286047000.4,N
1594193575.4,286047000.4,N
1594193595.2,286047000.0,N
1594193645.1,286047002.1,E
1594193655.0,286047000.0,N
1594193655.9,286047000.0,P
1594193675.7,286046998.3,P
1594193695.6,286046998.8,N
1594193715.4,286046998.7,N
1594193735.3,286046996.6,Y
1594193755.1,286046997.0,P
1594193775.8,286046997.2,N
1594193795.7,286046997.1,P
1594193815.5,286046997.2,Y
1594193835.4,286047000.6,P
1594193855.2,286047000.4,N
1594193875.1,286047000.4,N
1594193876.0,286047000.4,N
1594193895.8,286047000.7,N
1594193915.6,286047000.6,N
1594193935.5,286047002.8,N
1594193955.3,286047000.1,N
1594193975.1,286047002.0,N
1594193995.9,286047002.6,N
1594194015.7,286047002.1,N
1594194035.6,286047002.5,N
1594194055.4,286047002.8,N
1594194075.2,286047000.0,N
1594194095.1,286047002.5,N
1594194096.0,286047002.5,N
1594194115.8,286047002.5,N
1594194135.7,286047002.3,N
1594194155.5,286047004.0,N
1594194175.3,286047001.8,N
1594194195.2,286047001.5,N
1594194215.0,286047001.9,N
1594194215.9,286047001.9,N
1594194235.7,286047002.2,N
1594194255.6,286047002.4,N
1594194275.4,286047002.8,N
1594194295.3,286047000.4,N
1594194315.1,286047001.2,N
1594194335.8,286046998.3,N
1594194385.7,286047001.2,E
1594194395.6,286046999.4,N
1594194415.5,286046998.7,P
1594194435.3,286046998.2,P
1594194455.1,286046998.8,N
1594194475.9,286047000.9,N
1594194495.7,286046998.2,N
1594194515.6,286047000.6,N
1594194535.4,286047000.7,N
1594194555.2,286047000.6,N
1594194575.1,286047000.3,N
1594194576.0,286047000.3,N
1594194595.8,286046999.8,N
1594194615.7,286047000.9,N
1594194635.5,286047001.1,N
1594194655.3,286047000.4,N
1594194675.2,286047000.8,N
1594194695.0,286047000.7,N
1594194695.9,286047000.7,N
1594194715.8,286047000.5,N
1594194735.6,286047001.0,N
1594194755.4,286047001.0,N
1594194775.3,286047001.1,N
1594194795.1,286046998.4,N
1594194815.9,286046998.1,N
1594194835.7,286046999.7,N
1594194855.5,286047000.2,N
1594194875.4,286047002.7,N
1594194895.2,286047000.3,N
1594194915.1,286047001.1,N
1594194916.0,286047001.1,N
1594194935.8,286046999.8,N
1594194955.6,286046999.8,N
1594194975.5,286047000.7,N
1594194995.3,286047000.3,N
1594195015.1,286047002.8,Y
1594195035.9,286047002.8,P
1594195055.7,286046999.7,N
1594195075.6,286047002.1,N
1594195095.4,286046999.8,N
1594195115.3,286047001.7,N
1594195135.1,286047001.4,N
1594195136.0,286047001.4,N
1594195155.8,286047001.6,N
1594195175.7,286047002.2,N
1594195195.5,286047002.5,N
